When you browse on this site, cookies collect data to enhance your experience and personalize the content and advertising you see.
Visit our Privacy Policy to learn more. By continuing to use the site, you agree to this use of cookies and data.
  • în România
  • Lista ţărilor
  • Pe 7 zile
  • Temperatura apei
  • Meteo pe hartă
  • Widget-uri
  • user-avatar
    Intrare

    Meteo pe oră la Rio Branco

    Astăzi, 20 Septembrie, Vineri

    Timp Temperatura Precipitaţii Vânt Presiune Umiditate
    00:00 +27°C° 0 mm 0 m/s 742 mmHg 64%
    01:00 +26°C° 0 mm 0 m/s 742 mmHg 67%
    02:00 +26°C° 0 mm 0 m/s 742 mmHg 69%
    03:00 +26°C° 0 mm 0 m/s 742 mmHg 70%
    04:00 +27°C° 0 mm 1 m/s 742 mmHg 72%
    05:00 +29°C° 0 mm 1 m/s 743 mmHg 68%
    06:00 +30°C° 0 mm 1 m/s 744 mmHg 65%
    07:00 +31°C° 0 mm 1 m/s 745 mmHg 61%
    08:00 +35°C° 0 mm 2 m/s 745 mmHg 51%
    09:00 +38°C° 0 mm 2 m/s 745 mmHg 41%
    10:00 +41°C° 0 mm 2 m/s 745 mmHg 31%
    11:00 +41°C° 0 mm 2 m/s 744 mmHg 31%
    12:00 +41°C° 0 mm 2 m/s 743 mmHg 30%
    13:00 +41°C° 0 mm 1 m/s 742 mmHg 30%
    14:00 +40°C° 0 mm 1 m/s 742 mmHg 31%
    15:00 +40°C° 0 mm 1 m/s 741 mmHg 32%
    16:00 +39°C° 0 mm 1 m/s 741 mmHg 34%
    17:00 +36°C° 0.1 mm 1 m/s 741 mmHg 40%
    18:00 +34°C° 0.1 mm 1 m/s 742 mmHg 47%
    19:00 +32°C° 0.1 mm 1 m/s 742 mmHg 53%
    20:00 +31°C° 0.2 mm 1 m/s 743 mmHg 59%
    21:00 +30°C° 0.2 mm 1 m/s 743 mmHg 65%
    22:00 +28°C° 0.2 mm 1 m/s 744 mmHg 71%
    23:00 +28°C° 0.3 mm 1 m/s 743 mmHg 74%

    Mâine, 21 Septembrie, Sâmbătă

    Timp Temperatura Precipitaţii Vânt Presiune Umiditate
    00:00 +28°C° 0.3 mm 1 m/s 743 mmHg 78%
    01:00 +25°C° 0.3 mm 0 m/s 743 mmHg 81%
    02:00 +25°C° 1 mm 0 m/s 744 mmHg 84%
    03:00 +26°C° 1 mm 1 m/s 744 mmHg 88%
    04:00 +26°C° 1 mm 1 m/s 744 mmHg 91%
    05:00 +26°C° 0.5 mm 1 m/s 745 mmHg 87%
    06:00 +27°C° 0.5 mm 1 m/s 746 mmHg 84%
    07:00 +26°C° 0.5 mm 0 m/s 747 mmHg 80%
    08:00 +31°C° 0 mm 1 m/s 747 mmHg 68%
    09:00 +34°C° 0 mm 1 m/s 747 mmHg 56%
    10:00 +37°C° 0 mm 1 m/s 747 mmHg 43%
    11:00 +39°C° 0 mm 1 m/s 746 mmHg 39%
    12:00 +41°C° 0 mm 1 m/s 745 mmHg 35%
    13:00 +42°C° 0 mm 1 m/s 744 mmHg 31%
    14:00 +40°C° 0.1 mm 1 m/s 743 mmHg 35%
    15:00 +39°C° 0.1 mm 1 m/s 742 mmHg 39%
    16:00 +36°C° 0.1 mm 1 m/s 741 mmHg 42%
    17:00 +34°C° 0.4 mm 1 m/s 742 mmHg 53%
    18:00 +31°C° 0.4 mm 1 m/s 743 mmHg 63%
    19:00 +29°C° 0.4 mm 1 m/s 743 mmHg 73%
    20:00 +28°C° 0.5 mm 1 m/s 744 mmHg 77%
    21:00 +28°C° 0.5 mm 1 m/s 744 mmHg 81%
    22:00 +25°C° 0.5 mm 0 m/s 745 mmHg 85%
    23:00 +25°C° 0.2 mm 0 m/s 745 mmHg 86%

    Poimâine, 22 Septembrie, Duminică

    Timp Temperatura Precipitaţii Vânt Presiune Umiditate
    00:00 +25°C° 0.2 mm 0 m/s 745 mmHg 87%
    01:00 +24°C° 0.2 mm 0 m/s 744 mmHg 89%
    02:00 +24°C° 0.1 mm 0 m/s 744 mmHg 90%
    03:00 +24°C° 0.1 mm 0 m/s 745 mmHg 91%
    04:00 +24°C° 0.1 mm 0 m/s 745 mmHg 92%
    05:00 +25°C° 0 mm 0 m/s 745 mmHg 88%
    06:00 +26°C° 0 mm 0 m/s 746 mmHg 84%
    07:00 +27°C° 0 mm 0 m/s 747 mmHg 80%
    08:00 +31°C° 0 mm 1 m/s 747 mmHg 69%
    09:00 +34°C° 0 mm 1 m/s 747 mmHg 57%
    10:00 +37°C° 0 mm 1 m/s 747 mmHg 45%
    11:00 +39°C° 0 mm 1 m/s 746 mmHg 41%
    12:00 +40°C° 0 mm 1 m/s 745 mmHg 36%
    13:00 +42°C° 0 mm 1 m/s 744 mmHg 31%
    14:00 +41°C° 0 mm 1 m/s 743 mmHg 34%
    15:00 +40°C° 0 mm 1 m/s 742 mmHg 36%
    16:00 +35°C° 0 mm 0 m/s 741 mmHg 38%
    17:00 +35°C° 0 mm 1 m/s 742 mmHg 46%
    18:00 +33°C° 0 mm 1 m/s 742 mmHg 54%
    19:00 +31°C° 0 mm 1 m/s 743 mmHg 61%
    20:00 +30°C° 0 mm 1 m/s 743 mmHg 64%
    21:00 +30°C° 0 mm 2 m/s 744 mmHg 67%
    22:00 +29°C° 0 mm 2 m/s 744 mmHg 69%
    23:00 +29°C° 0.1 mm 2 m/s 744 mmHg 72%

    23 Septembrie, Luni

    Timp Temperatura Precipitaţii Vânt Presiune Umiditate
    00:00 +28°C° 0.1 mm 2 m/s 744 mmHg 75%
    01:00 +28°C° 0.1 mm 2 m/s 744 mmHg 78%
    02:00 +27°C° 0.2 mm 1 m/s 744 mmHg 81%
    03:00 +27°C° 0.2 mm 1 m/s 744 mmHg 84%
    04:00 +25°C° 0.2 mm 0 m/s 744 mmHg 87%
    05:00 +27°C° 0 mm 1 m/s 745 mmHg 85%
    06:00 +27°C° 0 mm 1 m/s 745 mmHg 82%
    07:00 +28°C° 0 mm 1 m/s 746 mmHg 80%
    08:00 +31°C° 0 mm 2 m/s 746 mmHg 63%
    09:00 +36°C° 0 mm 2 m/s 746 mmHg 47%
    10:00 +40°C° 0 mm 2 m/s 746 mmHg 30%
    11:00 +41°C° 0 mm 2 m/s 745 mmHg 27%
    12:00 +42°C° 0 mm 2 m/s 744 mmHg 24%
    13:00 +44°C° 0 mm 3 m/s 743 mmHg 21%
    14:00 +42°C° 0 mm 2 m/s 743 mmHg 22%
    15:00 +42°C° 0 mm 2 m/s 742 mmHg 24%
    16:00 +41°C° 0 mm 1 m/s 741 mmHg 25%
    17:00 +39°C° 0 mm 1 m/s 741 mmHg 28%
    18:00 +34°C° 0 mm 0 m/s 742 mmHg 31%
    19:00 +32°C° 0 mm 0 m/s 742 mmHg 35%
    20:00 +31°C° 0 mm 0 m/s 742 mmHg 37%
    21:00 +33°C° 0 mm 1 m/s 743 mmHg 40%
    22:00 +32°C° 0 mm 1 m/s 743 mmHg 42%
    23:00 +31°C° 0 mm 1 m/s 743 mmHg 48%

    24 Septembrie, Marţi

    Timp Temperatura Precipitaţii Vânt Presiune Umiditate
    00:00 +30°C° 0 mm 1 m/s 743 mmHg 53%
    01:00 +29°C° 0 mm 1 m/s 743 mmHg 59%
    02:00 +29°C° 0 mm 1 m/s 744 mmHg 63%
    03:00 +28°C° 0 mm 1 m/s 744 mmHg 67%
    04:00 +26°C° 0 mm 0 m/s 744 mmHg 71%
    05:00 +29°C° 0 mm 1 m/s 745 mmHg 68%
    06:00 +30°C° 0 mm 1 m/s 746 mmHg 65%
    07:00 +31°C° 0 mm 1 m/s 747 mmHg 63%
    08:00 +34°C° 0 mm 1 m/s 747 mmHg 54%
    09:00 +37°C° 0 mm 2 m/s 747 mmHg 45%
    10:00 +40°C° 0 mm 2 m/s 747 mmHg 36%
    11:00 +41°C° 0 mm 2 m/s 746 mmHg 33%
    12:00 +42°C° 0 mm 1 m/s 745 mmHg 31%
    13:00 +43°C° 0 mm 1 m/s 745 mmHg 28%
    14:00 +37°C° 1.6 mm 1 m/s 744 mmHg 45%
    15:00 +33°C° 1.6 mm 1 m/s 743 mmHg 62%
    16:00 +28°C° 1.6 mm 1 m/s 742 mmHg 80%
    17:00 +28°C° 0.1 mm 1 m/s 743 mmHg 80%
    18:00 +28°C° 0.1 mm 1 m/s 743 mmHg 80%
    19:00 +28°C° 0.1 mm 1 m/s 744 mmHg 80%
    20:00 +27°C° 0 mm 1 m/s 744 mmHg 81%
    21:00 +27°C° 0 mm 1 m/s 745 mmHg 82%
    22:00 +25°C° 0 mm 0 m/s 745 mmHg 84%
    23:00 +27°C° 0.1 mm 1 m/s 745 mmHg 84%

    25 Septembrie, Miercuri

    Timp Temperatura Precipitaţii Vânt Presiune Umiditate
    00:00 +26°C° 0.1 mm 1 m/s 745 mmHg 84%
    01:00 +26°C° 0.1 mm 1 m/s 745 mmHg 84%
    02:00 +26°C° 0.3 mm 1 m/s 745 mmHg 86%
    03:00 +25°C° 0.3 mm 1 m/s 745 mmHg 88%
    04:00 +25°C° 0.3 mm 1 m/s 746 mmHg 91%
    05:00 +25°C° 0.5 mm 1 m/s 746 mmHg 90%
    06:00 +25°C° 0.5 mm 1 m/s 747 mmHg 89%
    07:00 +26°C° 0.5 mm 1 m/s 748 mmHg 88%
    08:00 +28°C° 0.1 mm 2 m/s 748 mmHg 76%
    09:00 +31°C° 0.1 mm 2 m/s 748 mmHg 64%
    10:00 +34°C° 0.1 mm 2 m/s 748 mmHg 52%
    11:00 +35°C° 0 mm 2 m/s 747 mmHg 49%
    12:00 +36°C° 0 mm 2 m/s 746 mmHg 45%
    13:00 +37°C° 0 mm 3 m/s 745 mmHg 42%
    14:00 +37°C° 0 mm 3 m/s 744 mmHg 43%
    15:00 +36°C° 0 mm 3 m/s 744 mmHg 44%
    16:00 +36°C° 0 mm 3 m/s 743 mmHg 46%
    17:00 +34°C° 0 mm 2 m/s 743 mmHg 53%
    18:00 +31°C° 0 mm 2 m/s 744 mmHg 60%
    19:00 +29°C° 0 mm 1 m/s 744 mmHg 67%
    20:00 +29°C° 0 mm 1 m/s 744 mmHg 70%
    21:00 +28°C° 0 mm 1 m/s 745 mmHg 73%
    22:00 +27°C° 0 mm 1 m/s 745 mmHg 75%
    23:00 +27°C° 0 mm 1 m/s 745 mmHg 77%
    Arată mai mult